Location: Unspecified
(0.0000°N, 0.0000°E)
Time: 11:51:52
(UTC+00:00)

Vanguard 1 - Pass Details

Date: 09 December 2017
Orbit: 650 x 3833 km, 34.3° (Epoch: 24 June)

Event Time Altitude Azimuth Distance (km) Brightness Sun altitude
Rises 17:04:09 0° 333° (NNW) 3,490 13.0 11.1°
Reaches altitude 10° 17:08:22 10° 1° (N) 2,216 11.7 10.2°
Maximum altitude 17:10:34 13° 29° (NNE) 1,916 11.2 9.7°
Drops below altitude 10° 17:12:38 10° 57° (ENE) 2,048 11.1 9.2°
Sets 17:16:10 0° 87° (E) 2,979 12.0 8.4°
